Location: *
(32.8667°N, 13.1833°E)
Time: 08:01:07
(UTC+00:00)

COSMOS 2428 - Pass Details

Date: 18 July 2019
Orbit: 846 x 856 km, 70.9° (Epoch: 18 August)

Event Time Altitude Azimuth Distance (km) Brightness Sun altitude
Exits shadow 20:48:54 47° 72° (ENE) 1,125 3.1 -26.0°
Drops below altitude 10° 20:53:26 10° 31° (NNE) 2,489 5.4 -26.6°
Sets 20:55:57 0° 27° (NNE) 3,429 6.2 -26.9°
